Regional Weather Roundup
Issued by NWS

Home | Current Version | Previous Version | Graphics & Text | Print | Product List | Glossary On
Versions: 1 2 3 4 5 6 7 8 9 10 11 12 13 14 15 16 17 18 19 20 21 22 23 24 25 26 27 28 29 30 31 32 33 34 35 36 37 38 39 40 41 42 43 44 45 46 47 48 49 50
000
ASUS43 KLOT 280721
RWRIL

ILLINOIS REGIONAL WEATHER ROUNDUP
NATIONAL WEATHER SERVICE CHICAGO/ROMEOVILLE IL
200 AM CDT SAT MAR 28 2015

NOTE: "FAIR" INDICATES FEW OR NO CLOUDS BELOW 12,000 FEET WITH NO
SIGNIFICANT WEATHER AND/OR OBSTRUCTIONS TO VISIBILITY.

* THESE STATIONS ARE NOT UNDER NWS QUALITY CONTROL. THEY ALSO MAY NOT
  REPORT WEATHER SUCH AS PRECIPITATION OR FOG.

ILZ001-002-007-009-015-016-024-280800-
NORTHWEST ILLINOIS

CITY           SKY/WX    TMP DP  RH WIND       PRES   REMARKS
MOLINE         PTCLDY    20  13  74 E3        30.21S
STERLING*      CLEAR     21  16  79 E8        30.23S WCI  12
SAVANNA*       CLEAR     22  13  68 E3        30.23R
$$

ILZ003-004-008-010-011-017-018-280800-
NORTH CENTRAL ILLINOIS

CITY           SKY/WX    TMP DP  RH WIND       PRES   REMARKS
ROCKFORD       CLEAR     21  14  74 CALM      30.25S
FREEPORT*      CLEAR     17  13  82 SE5       30.25S WCI  10
ROCHELLE*      CLEAR     20  15  82 CALM      30.24S
DE KALB*       CLEAR     16  12  86 CALM      30.23R
PERU*          CLEAR     22  16  76 E3        30.25R
$$

ILZ005-006-012>014-019>023-280800-
NORTHEAST ILLINOIS

CITY           SKY/WX    TMP DP  RH WIND       PRES   REMARKS
CHICAGO-OHARE  CLEAR     22  13  68 N5        30.22R WCI  16
CHICAGO-MIDWAY PTCLDY    26  12  55 NW6       30.23R WCI  19
AURORA         CLEAR     17  12  80 CALM      30.23S
LANSING*       CLEAR     25   9  51 N6        30.22R WCI  18
JOLIET*        CLEAR     23  16  75 CALM      30.23S
WAUKEGAN       CLEAR     16  13  88 NW5       30.22S WCI   9
DUPAGE AIRPORT CLEAR     18  11  74 CALM      30.22R
KANKAKEE*      CLEAR     22  17  79 CALM      30.23R
WHEELING       CLEAR     21  13  71 NW5       30.24S WCI  15
MORRIS*        CLEAR     17  13  86 CALM      30.23S
ROMEOVILLE*    CLEAR     19  13  79 NW6       30.23R WCI  11
NORTHERLY ISL    N/A     26  12  55 N12         N/A  WCI  16
$$

LMZ740>746-280800-
SOUTHERN LAKE MICHIGAN

STATION/POSITION SKY/WX   TEMP    WIND        PRES    VSBY  WAVE
                          AIR SEA DIR/SP/G                  HT/PER
                          (F)     (DEG/KT/KT) (MB)    (MI)  (FT/S)
HARRISON CRIB              26      20/ 16/ 19   N/A
BURNHAM HARBOR             26      10/ 12/ 17   N/A
CALUMET HARBOR             26     350/ 11/ 14 1021.9F
BURNS HARBOR               26      20/ 16/ 21 1023.0F
MICHIGAN CITY              23      10/ 15/ 17   N/A
$$

ILZ025>027-034>036-040-047-049-050-058-095>099-280800-
WEST-CENTRAL ILLINOIS

CITY           SKY/WX    TMP DP  RH WIND       PRES   REMARKS
QUINCY         PTCLDY    28  13  53 SE7       30.19S WCI  21
MACOMB*        PTCLDY    23  18  78 E3        30.22S
JACKSONVILLE*  PTCLDY    26  21  79 E5        30.21S WCI  21
PITTSFIELD*    PTCLDY    29  20  68 CALM      30.21S
$$

ILZ028>032-037-038-041>044-048-051>054-059>061-280800-
CENTRAL ILLINOIS

CITY           SKY/WX    TMP DP  RH WIND       PRES   REMARKS
PONTIAC        CLEAR     21  19  90 CALM      30.24R
BLOOMINGTON    CLEAR     20  16  84 E6        30.22S WCI  12
DECATUR        CLEAR     22  17  81 E6        30.22R WCI  14
PEORIA         PTCLDY    25  15  66 E8        30.23R WCI  16
LACON*         CLEAR     20  15  78 CALM      30.24R
LINCOLN*       CLEAR     26  19  77 E7        30.24S WCI  18
SPRINGFIELD    CLEAR     24  16  71 NE3       30.22S
TAYLORVILLE    CLEAR     27  19  74 NE7       30.21S WCI  19
$$

ILZ033-039-045-046-055>057-062-063-280800-
EAST-CENTRAL ILLINOIS

CITY           SKY/WX    TMP DP  RH WIND       PRES   REMARKS
CHAMPAIGN      CLEAR     21  14  74 NE6       30.22R WCI  13
DANVILLE*      CLEAR     19  16  86 N5        30.19S WCI  12
RANTOUL*       CLEAR     23  17  75 CALM      30.21S
MATTOON        FAIR      24  15  68 NE8       30.21R WCI  15
PARIS*         CLEAR     23  18  80 CALM      30.22S
$$

ILZ079-100>102-280800-
SOUTHWEST ILLINOIS

CITY           SKY/WX    TMP DP  RH WIND       PRES   REMARKS
ALTON          CLEAR     28  24  86 CALM      30.22R
BELLEVILLE     CLEAR     26  22  87 CALM      30.20S
CAHOKIA*       CLEAR     29  19  66 CALM      30.21S
SPARTA*        CLEAR     28  21  76 CALM      30.22R
$$

ILZ064>066-069>071-074>076-080>082-084>086-088>090-092>094-280800-
SOUTH-CENTRAL ILLINOIS

CITY           SKY/WX    TMP DP  RH WIND       PRES   REMARKS
CARBONDALE     CLEAR     28  20  71 NE5       30.21R WCI  23
CAIRO*         CLEAR     29  28  94 NE7       30.20S WCI  22
EFFINGHAM*     CLEAR     27  18  67 NE5       30.23S WCI  22
MARION         CLEAR     27  23  86 CALM      30.21S
MT. VERNON     CLEAR     21  16  79 CALM      30.21S
CENTRALIA*     CLEAR     27  22  84 CALM      30.21S
SALEM*         CLEAR     29  22  76 CALM      30.21S
METROPOLIS*    CLEAR     30  23  75 CALM      30.19S
$$

ILZ067-068-072-073-078-083-087-091-280800-
SOUTHEAST ILLINOIS

CITY           SKY/WX    TMP DP  RH WIND       PRES   REMARKS
LAWRENCEVILLE  CLEAR     26  19  74 N5        30.22R WCI  20
FLORA*         CLEAR     27  20  75 N3        30.22S
FAIRFIELD*     CLEAR     26  21  82 CALM      30.21R
HARRISBURG*    CLEAR     29  20  69 N3        30.22S
ROBINSON*      CLEAR     24  17  73 NE6       30.23R WCI  17
CARMI*         CLEAR     28  19  67 N5        30.20S WCI  23
$$

ABBREVIATIONS USED IN REMARKS
   TC - TEMPERATURE IN CELSIUS
  WCI - WIND CHILL INDEX
   HX - HEAT INDEX
  VSB - VISIBILITY
$$




USA.gov is the U.S. government's official web portal to all federal, state and local government web resources and services.